Weather in Aga-Khangil

Russia / Zabaykalsky Krai     51°11′06″N   114°45′13″E
temp.,
°C
wind,
m/s
gust,
m/s
humid.,
%
clouds,
%
prec.,
mm/h
press.,
hPa
HPBL,
m
9 may, sun
sun900:00+5se115554 0.0 100710
03:00+4ne005791 0.0 100710
06:00+3nne116040 0.0 100810
09:00+7ene114598 0.0 1009528
12:00+11se143467 0.0 10072006
15:00+12s252786 0.0 10052275
18:00+10ssw244335 0.1 1006778
21:00+8n235091 0.2 100738
10 may, mon
mon1000:00+6n2278100 0.4 100996
03:00+4nw11835 0.6 100810
06:00+3nw1186100 0.0 100910
09:00+7e3371100 0.0 1008455
12:00+9ese4462100 0.1 10071067
15:00+8ese4576100 2.1 1006954
18:00+7ne3482100 0.4 1006581
21:00+6nne4790100 1.4 1006573
11 may, tue
tue1100:00+4ne7128941 1.9 1008511
03:00+4nw1286100 2.0 1009220
06:00+4nnw3689100 0.0 1007214
09:00+8nnw5765100 0.0 1007556
12:00+12n693571 0.0 10052574
15:00+14nnw7827100 0.0 10032950
18:00+10nw354774 0.1 1004296
21:00+9wnw7125687 0.3 1005398
12 may, wed
wed1200:00+7wnw713733 0.0 1006347
03:00+5wnw715715 0.0 1006355
06:00+3wnw815741 0.0 1007409
09:00+7wnw913585 0.0 1007559
12:00+11wnw810435 0.0 10051600
15:00+14wnw9102877 0.0 10032943
18:00+14wnw811245 0.0 10033042
21:00+9w33435 0.0 100533
13 may, thu
thu1300:00+6wnw22535 0.0 100719
03:00+4w335218 0.0 100854
06:00+2wnw2254100 0.0 100836
09:00+7nw4631100 0.0 1008720
12:00+9nw4628100 0.0 10071635
15:00+11nw4626100 0.0 10052105
18:00+11wnw4624100 0.0 10052403
21:00+9wnw3432100 0.0 100469